This is the latest recevied weather packets stored in our database for station/object W4MSI. If no packets are shown the sender has not sent any weather packets the latest 10 day(s).
| Time | Temp. | Humidity | Pressure | Rain* | Wind** | Luminosity | Snow |
|---|---|---|---|---|---|---|---|
| 1777951741 | 20° C | 53% | 1009.2 hPa | 0 mm | - | 0 W/m² | - |
| 1777951437 | 20° C | 52% | 1009.1 hPa | 0 mm | - | 0 W/m² | - |
| 1777951134 | 20° C | 52% | 1009.1 hPa | 0 mm | - | 0 W/m² | - |
| 1777950831 | 20.56° C | 51% | 1009 hPa | 0 mm | - | 0 W/m² | - |
| 1777950528 | 20° C | 52% | 1008.9 hPa | 0 mm | - | 0 W/m² | - |
| 1777950224 | 20° C | 52% | 1008.9 hPa | 0 mm | - | 0 W/m² | - |
| 1777949919 | 20.56° C | 52% | 1009 hPa | 0 mm | - | 0 W/m² | - |
| 1777949617 | 20.56° C | 51% | 1009.1 hPa | 0 mm | - | 0 W/m² | - |
| 1777949316 | 20.56° C | 51% | 1008.8 hPa | 0 mm | - | 0 W/m² | - |
| 1777949013 | 20.56° C | 51% | 1008.8 hPa | 0 mm | - | 0 W/m² | - |
| 1777948710 | 20.56° C | 51% | 1009 hPa | 0 mm | - | 0 W/m² | - |
| 1777948407 | 20.56° C | 51% | 1008.9 hPa | 0 mm | - | 0 W/m² | - |
| 1777948104 | 20.56° C | 51% | 1008.6 hPa | 0 mm | - | 0 W/m² | - |
| 1777947801 | 20.56° C | 51% | 1008.4 hPa | 0 mm | - | 0 W/m² | - |
| 1777947499 | 20.56° C | 51% | 1008.6 hPa | 0 mm | - | 0 W/m² | - |
| 1777947195 | 21.11° C | 51% | 1008.4 hPa | 0 mm | - | 0 W/m² | - |
| 1777946891 | 21.11° C | 51% | 1008.4 hPa | 0 mm | - | 0 W/m² | - |
| 1777946587 | 21.11° C | 50% | 1008.4 hPa | 0 mm | - | 0 W/m² | - |
| 1777946284 | 21.11° C | 50% | 1008.3 hPa | 0 mm | - | 0 W/m² | - |
| 1777945981 | 21.67° C | 49% | 1008.2 hPa | 0 mm | - | 0 W/m² | - |
| 1777945678 | 21.67° C | 49% | 1008 hPa | 0 mm | - | 0 W/m² | - |
| 1777945375 | 21.67° C | 49% | 1008 hPa | 0 mm | - | 0 W/m² | - |
| 1777945071 | 21.67° C | 48% | 1008.1 hPa | 0 mm | - | 0 W/m² | - |
| 1777944769 | 21.67° C | 48% | 1008.1 hPa | 0 mm | - | 0 W/m² | - |
| 1777944467 | 22.22° C | 48% | 1008 hPa | 0 mm | - | 0 W/m² | - |
* Rain latest hour (hover to see other rain measurements)
** Current wind speed in m/s (hover to see current wind gust speed)